カタログに戻る

WESTFORD NEEDLES

LostPO
NORAD 2372·DEBRIS·🇺🇸 United States

打ち上げ May 9, 1963 から Vandenberg Space Force Base

Loading…

次のパス (今後24時間)

TLE

古いSource: Space-Track

元期: Nov 18, 2013, 05:31 UTC

1  2372U 63014T   13322.23028137 +.00000002 +00000-0 +00000-0 0  9997
2  2372 087.4481 223.7980 0364875 229.3113 282.4794 08.66555747525688

AllMySatでWESTFORD NEEDLESをリアルタイム追跡

Download on the App Store